• In Kazakhstan
  • List of Countries
  • For 7 days
  • Water Temperature
  • Satellite Maps
  • Weather Map
  • News
  • Weather Widgets
  • user-avatar
    Login

    Hourly Weather Brisbane

    Today, 23 November, Thursday

    Time Temperature Precipitation Wind Pressure Humidity
    00:00 +19°C° 0 mm 2 mps 760 mmHg 82%
    01:00 +18°C° 0 mm 2 mps 760 mmHg 83%
    02:00 +18°C° 0.1 mm 2 mps 760 mmHg 84%
    03:00 +18°C° 0.1 mm 2 mps 759 mmHg 86%
    04:00 +17°C° 0 mm 2 mps 759 mmHg 87%
    05:00 +18°C° 0.1 mm 3 mps 760 mmHg 83%
    06:00 +20°C° 0.1 mm 3 mps 760 mmHg 79%
    07:00 +21°C° 0.1 mm 3 mps 760 mmHg 75%
    08:00 +24°C° 0.1 mm 3 mps 760 mmHg 67%
    09:00 +26°C° 0.1 mm 3 mps 760 mmHg 59%
    10:00 +27°C° 0.1 mm 3 mps 760 mmHg 52%
    11:00 +28°C° 0.3 mm 3 mps 760 mmHg 52%
    12:00 +28°C° 0.3 mm 4 mps 759 mmHg 53%
    13:00 +28°C° 0.3 mm 4 mps 759 mmHg 53%
    14:00 +28°C° 0.1 mm 4 mps 759 mmHg 54%
    15:00 +27°C° 0.1 mm 4 mps 759 mmHg 56%
    16:00 +27°C° 0 mm 4 mps 759 mmHg 57%
    17:00 +25°C° 0 mm 3 mps 759 mmHg 63%
    18:00 +24°C° 0 mm 3 mps 760 mmHg 70%
    19:00 +21°C° 0 mm 3 mps 760 mmHg 77%
    20:00 +21°C° 0 mm 2 mps 760 mmHg 79%
    21:00 +20°C° 0 mm 2 mps 760 mmHg 82%
    22:00 +20°C° 0 mm 2 mps 761 mmHg 85%
    23:00 +19°C° 0 mm 2 mps 760 mmHg 86%

    Tomorrow, 24 November, Friday

    Time Temperature Precipitation Wind Pressure Humidity
    00:00 +19°C° 0 mm 2 mps 760 mmHg 87%
    01:00 +19°C° 0 mm 2 mps 760 mmHg 89%
    02:00 +18°C° 0 mm 2 mps 760 mmHg 89%
    03:00 +18°C° 0 mm 2 mps 760 mmHg 90%
    04:00 +18°C° 0 mm 2 mps 760 mmHg 91%
    05:00 +19°C° 0 mm 2 mps 760 mmHg 86%
    06:00 +21°C° 0 mm 2 mps 760 mmHg 80%
    07:00 +23°C° 0 mm 2 mps 761 mmHg 74%
    08:00 +25°C° 0 mm 3 mps 761 mmHg 65%
    09:00 +27°C° 0 mm 3 mps 760 mmHg 56%
    10:00 +29°C° 0 mm 3 mps 760 mmHg 47%
    11:00 +30°C° 0 mm 4 mps 760 mmHg 45%
    12:00 +32°C° 0 mm 4 mps 759 mmHg 44%
    13:00 +32°C° 0 mm 4 mps 759 mmHg 42%
    14:00 +30°C° 0 mm 5 mps 759 mmHg 46%
    15:00 +30°C° 0 mm 5 mps 758 mmHg 49%
    16:00 +29°C° 0 mm 5 mps 758 mmHg 53%
    17:00 +27°C° 0 mm 4 mps 759 mmHg 61%
    18:00 +25°C° 0 mm 4 mps 759 mmHg 70%
    19:00 +24°C° 0 mm 3 mps 760 mmHg 79%
    20:00 +22°C° 0 mm 3 mps 760 mmHg 82%
    21:00 +22°C° 0 mm 3 mps 761 mmHg 86%
    22:00 +21°C° 0 mm 2 mps 761 mmHg 90%
    23:00 +21°C° 0.1 mm 2 mps 761 mmHg 91%

    Day after tomorrow, 25 November, Saturday

    Time Temperature Precipitation Wind Pressure Humidity
    00:00 +20°C° 0.1 mm 2 mps 760 mmHg 92%
    01:00 +20°C° 0.1 mm 2 mps 760 mmHg 93%
    02:00 +20°C° 0 mm 3 mps 760 mmHg 93%
    03:00 +20°C° 0 mm 3 mps 759 mmHg 92%
    04:00 +20°C° 0 mm 3 mps 759 mmHg 92%
    05:00 +21°C° 0 mm 3 mps 760 mmHg 87%
    06:00 +22°C° 0 mm 3 mps 760 mmHg 82%
    07:00 +24°C° 0 mm 3 mps 760 mmHg 77%
    08:00 +26°C° 0 mm 3 mps 760 mmHg 68%
    09:00 +28°C° 0 mm 4 mps 760 mmHg 60%
    10:00 +30°C° 0 mm 4 mps 760 mmHg 51%
    11:00 +30°C° 0.3 mm 4 mps 759 mmHg 50%
    12:00 +32°C° 0.3 mm 4 mps 759 mmHg 50%
    13:00 +32°C° 0.3 mm 4 mps 758 mmHg 49%
    14:00 +32°C° 0.2 mm 5 mps 758 mmHg 51%
    15:00 +30°C° 0.2 mm 5 mps 758 mmHg 53%
    16:00 +30°C° 0.2 mm 5 mps 758 mmHg 54%
    17:00 +28°C° 0.1 mm 4 mps 758 mmHg 63%
    18:00 +26°C° 0.1 mm 4 mps 759 mmHg 71%
    19:00 +25°C° 0.1 mm 3 mps 759 mmHg 79%
    20:00 +24°C° 0.1 mm 3 mps 760 mmHg 82%
    21:00 +22°C° 0.1 mm 3 mps 760 mmHg 86%
    22:00 +22°C° 0.1 mm 3 mps 761 mmHg 89%
    23:00 +23°C° 0.2 mm 2 mps 760 mmHg 90%

    26 November, Sunday

    Time Temperature Precipitation Wind Pressure Humidity
    00:00 +21°C° 0.2 mm 2 mps 760 mmHg 92%
    01:00 +21°C° 0.2 mm 2 mps 759 mmHg 93%
    02:00 +21°C° 0 mm 2 mps 759 mmHg 93%
    03:00 +21°C° 0 mm 2 mps 759 mmHg 92%
    04:00 +21°C° 0 mm 2 mps 759 mmHg 92%
    05:00 +22°C° 0 mm 3 mps 759 mmHg 88%
    06:00 +24°C° 0 mm 3 mps 759 mmHg 83%
    07:00 +25°C° 0 mm 3 mps 759 mmHg 79%
    08:00 +26°C° 0.1 mm 3 mps 760 mmHg 72%
    09:00 +28°C° 0.1 mm 3 mps 760 mmHg 66%
    10:00 +29°C° 0.1 mm 3 mps 760 mmHg 60%
    11:00 +30°C° 0.2 mm 4 mps 759 mmHg 57%
    12:00 +30°C° 0.2 mm 4 mps 759 mmHg 55%
    13:00 +32°C° 0.2 mm 4 mps 758 mmHg 52%
    14:00 +32°C° 0 mm 4 mps 758 mmHg 53%
    15:00 +30°C° 0 mm 4 mps 758 mmHg 55%
    16:00 +30°C° 0 mm 5 mps 757 mmHg 56%
    17:00 +28°C° 0 mm 4 mps 758 mmHg 64%
    18:00 +26°C° 0 mm 4 mps 758 mmHg 72%
    19:00 +25°C° 0 mm 3 mps 759 mmHg 79%
    20:00 +24°C° 0 mm 3 mps 759 mmHg 83%
    21:00 +24°C° 0 mm 3 mps 760 mmHg 86%
    22:00 +22°C° 0 mm 3 mps 760 mmHg 90%
    23:00 +22°C° 0 mm 3 mps 760 mmHg 91%

    27 November, Monday

    Time Temperature Precipitation Wind Pressure Humidity
    00:00 +23°C° 0 mm 2 mps 759 mmHg 91%
    01:00 +21°C° 0 mm 2 mps 759 mmHg 92%
    02:00 +21°C° 0 mm 2 mps 758 mmHg 92%
    03:00 +21°C° 0 mm 2 mps 758 mmHg 93%
    04:00 +21°C° 0 mm 2 mps 758 mmHg 93%
    05:00 +22°C° 0.1 mm 3 mps 758 mmHg 88%
    06:00 +24°C° 0.1 mm 3 mps 759 mmHg 84%
    07:00 +25°C° 0.1 mm 3 mps 759 mmHg 79%
    08:00 +26°C° 0.1 mm 3 mps 759 mmHg 72%
    09:00 +28°C° 0.1 mm 3 mps 760 mmHg 64%
    10:00 +29°C° 0.1 mm 3 mps 760 mmHg 56%
    11:00 +30°C° 0 mm 4 mps 759 mmHg 54%
    12:00 +32°C° 0 mm 4 mps 759 mmHg 51%
    13:00 +32°C° 0 mm 4 mps 758 mmHg 49%
    14:00 +32°C° 0 mm 4 mps 758 mmHg 51%
    15:00 +30°C° 0 mm 4 mps 758 mmHg 53%
    16:00 +30°C° 0 mm 4 mps 758 mmHg 56%
    17:00 +28°C° 0.1 mm 4 mps 758 mmHg 64%
    18:00 +26°C° 0.1 mm 3 mps 759 mmHg 73%
    19:00 +25°C° 0.1 mm 3 mps 760 mmHg 81%
    20:00 +24°C° 0.1 mm 3 mps 760 mmHg 85%
    21:00 +24°C° 0.1 mm 3 mps 760 mmHg 88%
    22:00 +22°C° 0.1 mm 3 mps 761 mmHg 91%
    23:00 +22°C° 0.3 mm 3 mps 760 mmHg 92%

    28 November, Tuesday

    Time Temperature Precipitation Wind Pressure Humidity
    00:00 +22°C° 0.3 mm 3 mps 760 mmHg 92%
    01:00 +23°C° 0.3 mm 2 mps 760 mmHg 93%
    02:00 +22°C° 0.3 mm 3 mps 760 mmHg 93%
    03:00 +22°C° 0.3 mm 3 mps 760 mmHg 93%
    04:00 +22°C° 0.3 mm 3 mps 760 mmHg 93%
    05:00 +22°C° 0.3 mm 3 mps 760 mmHg 90%
    06:00 +24°C° 0.3 mm 3 mps 761 mmHg 87%
    07:00 +25°C° 0.3 mm 3 mps 761 mmHg 84%
    08:00 +26°C° 0.2 mm 4 mps 761 mmHg 78%
    09:00 +27°C° 0.2 mm 4 mps 761 mmHg 71%
    10:00 +28°C° 0.2 mm 4 mps 761 mmHg 64%
    11:00 +29°C° 0 mm 4 mps 761 mmHg 59%
    12:00 +30°C° 0 mm 4 mps 760 mmHg 54%
    13:00 +32°C° 0 mm 4 mps 760 mmHg 49%
    14:00 +30°C° 0 mm 4 mps 760 mmHg 52%
    15:00 +30°C° 0 mm 4 mps 760 mmHg 54%
    16:00 +29°C° 0 mm 4 mps 760 mmHg 56%
    17:00 +28°C° 0 mm 4 mps 761 mmHg 63%
    18:00 +26°C° 0 mm 3 mps 761 mmHg 71%
    19:00 +24°C° 0 mm 3 mps 762 mmHg 78%
    20:00 +24°C° 0.1 mm 3 mps 762 mmHg 81%
    21:00 +22°C° 0.1 mm 3 mps 763 mmHg 84%
    22:00 +22°C° 0.1 mm 3 mps 763 mmHg 87%
    23:00 +22°C° 0.1 mm 3 mps 763 mmHg 88%
    Show more